CYYQ

Churchill Airport

Airport
ICAO code
CYYQ
Summary
ICAO Region
NAM
ICAO Territory
Location

Churchill, Manitoba,

Coordinates
58° 44' 17" N , 94° 4' 14" W
KCC
Airport BS
Non Avian Wildlife Hazards to Aircraft
Airport CFIT
Altimeter Temperature Error Correction
Airport GND
Aircraft Ground De/Anti Icing
Airport WX
Fog
Metar
Observation
CYYQ 272100Z 32016KT 8SM IC DRSN BKN250 M31/M36 A2997 RMK IC2CI3 SLP156
Station
Churchill, Man.
Date/Time
2023-01-27 21:00:00
Wind direction
320°
Wind speed
16 kts
Lowest cloud amount
broken clouds
Temperature
-31°C
Dew point
-36°C
Humidity
61%
Weather condition
drifting

Description

Airport serving Churchill, Manitoba.

Climatology

Subarctic climate (Köppen climate classification Dfc) - long, usually very cold winters, and short, cool to mild summers.

Note

Diversion airfield for commercial aircraft on Polar and NAT routes

Runways

Designator Length Width Surface Rops
7/25 1219 30 GVL No/No
15/33 2804 49 ASP No/No

Airport map

Aerial View

SKYbrary Partners:

Safety knowledge contributed by: